PINOT (44364 NORAD) Tracking and Keplerian Element Data

This shows tracking and keplerian element data for the satellite.

Feedback or suggestion? Click here.




ElementValue
Catalog44364
NamePINOT
Epoch Orbit2502
Epoch Day339.40074089
Epoch Year2019
RAAN230.7448
Inclination51.6491
Eccentricity0.0006616
Argument of Perigee327.3275
Mean Anonmoly32.7288
Mean Motion15.52553728
Decay Rate3.441E-05
L11 44364U 98067QJ 19339.40074089 .00003441 00000-0 62533-4 0 9993
L22 44364 51.6491 230.7448 0006616 327.3275 32.7288 15.52553728 25027

Live tracking and technical data element details for PINOT (NORAD 44364). PINOT can be tracked NOW for your location showing map with azimuth and elevation plus other details from your city location.

Track the satellite on the map from your city or location and see movement details for azimuth, elevation, latitude, longitude, range, height, and movement on the map or in text.







IsCatalogInMostPopularTable: catalog: 44364, numindb: 36
Update: records affected: 1



GetName: 44364 PINOT

Hit Count: updated at: Thu, 05 Dec 2019 16:43:48 GMT